This is the latest recevied weather packets stored in our database for station/object XE2RCS-1. If no packets are shown the sender has not sent any weather packets the latest 1 day(s).
| Time | Temp. | Humidity | Pressure | Rain* | Wind** | Luminosity | Snow |
|---|---|---|---|---|---|---|---|
| 1778007496 | 33.89° C | 12% | 1007 hPa | 0 mm | 6.71 m/s, 180° | - | - |
| 1778006895 | 32.78° C | 13% | 1007 hPa | 0 mm | 6.71 m/s, 180° | - | - |
| 1778006294 | 32.78° C | 13% | 1007 hPa | 0 mm | 6.71 m/s, 180° | - | - |
| 1778005694 | 32.78° C | 13% | 1008 hPa | 0 mm | 6.71 m/s, 180° | - | - |
| 1778005093 | 32.78° C | 14% | 1008 hPa | 0 mm | 6.71 m/s, 180° | - | - |
| 1778004493 | 32.78° C | 13% | 1008 hPa | 0 mm | 6.71 m/s, 180° | - | - |
| 1778003892 | 32.78° C | 13% | 1008 hPa | 0 mm | 6.71 m/s, 180° | - | - |
| 1778003291 | 32.22° C | 13% | 1008 hPa | 0 mm | 6.71 m/s, 180° | - | - |
| 1778002691 | 31.67° C | 13% | 1008 hPa | 0 mm | 6.71 m/s, 180° | - | - |
| 1778002092 | 31.67° C | 13% | 1012 hPa | 0 mm | 6.71 m/s, 180° | - | - |
| 1778001489 | 31.67° C | 12% | 1012 hPa | 0 mm | 6.71 m/s, 180° | - | - |
| 1778000889 | 31.67° C | 13% | 1012 hPa | 0 mm | 6.71 m/s, 180° | - | - |
| 1778000288 | 31.67° C | 15% | 1011 hPa | 0 mm | 6.71 m/s, 180° | - | - |
| 1777999687 | 31.11° C | 16% | 1011 hPa | 0 mm | 6.71 m/s, 180° | - | - |
| 1777999087 | 30.56° C | 17% | 1011 hPa | 0 mm | 6.71 m/s, 180° | - | - |
| 1777998486 | 30° C | 18% | 1013 hPa | 0 mm | 6.71 m/s, 180° | - | - |
| 1777997886 | 30° C | 19% | 1013 hPa | 0 mm | 6.71 m/s, 180° | - | - |
| 1777997285 | 29.44° C | 20% | 1013 hPa | 0 mm | 6.71 m/s, 180° | - | - |
| 1777996685 | 29.44° C | 21% | 1011 hPa | 0 mm | 6.71 m/s, 180° | - | - |
| 1777996084 | 28.89° C | 22% | 1011 hPa | 0 mm | 6.71 m/s, 180° | - | - |
| 1777995483 | 28.33° C | 24% | 1011 hPa | 0 mm | 6.71 m/s, 180° | - | - |
| 1777994883 | 27.78° C | 25% | 1013 hPa | 0 mm | 6.71 m/s, 180° | - | - |
| 1777994282 | 27.78° C | 26% | 1013 hPa | 0 mm | 6.71 m/s, 180° | - | - |
| 1777993681 | 27.78° C | 27% | 1013 hPa | 0 mm | 6.71 m/s, 180° | - | - |
| 1777993081 | 27.78° C | 29% | 1012 hPa | 0 mm | 6.71 m/s, 180° | - | - |
* Rain latest hour (hover to see other rain measurements)
** Current wind speed in m/s (hover to see current wind gust speed)